Find Starlink 11312

NORAD ID: 61689 Int'l Des: 2024-195 Owner: SPXS Country: US Constellation: starlink operational
又名: STARLINK-11312 [DTC] celestrak
LEOCIRCULAR

当前视图

正在加载3D地球...

About Starlink 11312

Starlink 11312 (NORAD 61689) is a starlink constellation satellite (v2 mini d2c) launched Oct 30, 2024 by SPXS of US. It operates in LEO, CIRCULAR orbit with a mass of 960.00 kg.

即将过境

Passes for default location (London). Set your location on the main map for personalized predictions.

高度历史

Loading altitude history...

两行轨道根数

1 61689U 24195C 26264.87569868 -.00000575 00000-0 11290-6 0 9995
2 61689 53.1583 139.3703 0000879 94.4863 265.6255 15.69706700109845
Epoch: Sep 21, 2026 • Age: 20 hours

当前状态

高度 360.6 km
远地点 / 近地点 N/A
速度 7.70 km/s
星下点 26.95°N, 28.83°E
发射日期 Oct 30, 2024
运行时间 1.8 years
类型 internet

技术详情

分类 Payload
质量 960.00 kg
干质量 910.00 kg
长度 0.30 m
跨度 29.00 m
形状 ? Box + pan
制造商 SPXS
平台类型 Starlink V2MD
阶段状态 In Orbit
所有者/国家 SPXS/US

Most Searched